New York Downtown Manhattan/w, NY

4:50 PM EST on December 12, 2019 (GMT -0500)
New York Downtown Manhattan/w

Weather History for KJRB - November, 2019

Change the Weather History Date:

Thursday, November 14, 2019

  Actual Average (WUND) Record (WUND)
Temperature  
Mean Temperature 40 °F -  
Max Temperature 46 °F - - (-1)
Min Temperature 33 °F - - (-1)
Degree Days  
Heating Degree Days 26    
Moisture  
Dew Point 25 °F    
Average Humidity 54    
Maximum Humidity 64    
Minimum Humidity 42    
Precipitation  
Precipitation 0.01 in - - ()
Sea Level Pressure  
Sea Level Pressure 30.39 in    
Wind  
Wind Speed 6 mph ()    
Max Wind Speed 14 mph    
Max Gust Speed 44 mph    
Averages and records for this station are not official NWS values.
T = Trace of Precipitation, MM = Missing Value Source: Averaged Metar Reports

Daily Weather History Graph

Daily Weather History Graph

Search for Another Location

Airport or City:

Astronomy

Nov. 14, 2019 Rise Set
Actual Time 6:41 AM EST 4:39 PM EST
Civil Twilight 6:12 AM EST 5:08 PM EST
Nautical Twilight 5:39 AM EST 5:41 PM EST
Astronomical Twilight 5:06 AM EST 6:13 PM EST
Moon 6:22 PM EST (11/14) 8:34 AM EST (11/14)
Length of Visible Light 10h 56m
Length of Day
9h 57m
Waning Gibbous, 95% of the Moon is Illuminated
Nov 14
Waning Gibbous
Nov 19
Last Quarter
Nov 26
New
Dec 4
First Quarter
Dec 12
Full

Hourly Weather History & Observations

Time (EST) Temp. Windchill Dew Point Humidity Pressure Visibility Wind Dir Wind Speed Gust Speed Precip Events Conditions
1:56 AM 33.1 °F 28.7 °F 15.1 °F 48% 30.47 in - East 4.6 mph - N/A   Clear
2:56 AM 33.1 °F 26.9 °F 16.0 °F 50% 30.45 in - East 6.9 mph - N/A   Clear
3:56 AM 33.1 °F 26.1 °F 19.0 °F 56% 30.45 in - NE 8.1 mph - N/A   Clear
4:56 AM 33.1 °F 27.7 °F 19.0 °F 56% 30.44 in - ENE 5.8 mph - N/A   Clear
5:56 AM 35.1 °F 31.0 °F 23.0 °F 61% 30.45 in - Variable 4.6 mph - N/A   Clear
6:56 AM 35.1 °F 30.1 °F 24.1 °F 64% 30.46 in - Variable 5.8 mph - N/A   Clear
7:56 AM 36.0 °F - 24.1 °F 62% 30.47 in - Calm Calm - N/A   Clear
8:56 AM 37.9 °F 35.5 °F 25.0 °F 60% 30.47 in - Variable 3.5 mph - N/A   Clear
9:56 AM 39.0 °F 35.7 °F 24.1 °F 55% 30.46 in - WSW 4.6 mph - N/A   Mostly Cloudy
10:56 AM 39.9 °F 35.8 °F 24.1 °F 53% 30.44 in - Variable 5.8 mph - N/A   Mostly Cloudy
11:56 AM 43.0 °F 38.8 °F 25.0 °F 49% 30.41 in - West 6.9 mph - N/A   Clear
1:56 PM 46.0 °F 42.5 °F 26.1 °F 46% 30.36 in - South 6.9 mph - N/A   Clear
2:56 PM 46.0 °F 42.5 °F 26.1 °F 46% 30.35 in - SSW 6.9 mph - N/A   Clear
3:56 PM 46.0 °F 41.4 °F 24.1 °F 42% 30.34 in - SW 9.2 mph - N/A   Clear
4:56 PM 45.0 °F 40.1 °F 25.0 °F 46% 30.33 in - WSW 9.2 mph 43.7 mph N/A   Clear
5:56 PM 45.0 °F 40.1 °F 28.0 °F 52% 30.34 in - WSW 9.2 mph 40.3 mph 0.01 in   Clear
6:56 PM 45.0 °F 39.3 °F 28.9 °F 53% 30.32 in - WSW 11.5 mph - N/A   Clear
7:56 PM 45.0 °F 38.9 °F 30.9 °F 58% 30.32 in - WSW 12.7 mph - N/A   Clear
8:56 PM 44.1 °F 37.4 °F 30.0 °F 58% 30.32 in - West 13.8 mph - N/A   Clear
9:56 PM 44.1 °F 37.7 °F 28.9 °F 55% 30.32 in - West 12.7 mph - N/A   Partly Cloudy
10:56 PM 43.0 °F 37.7 °F 28.9 °F 58% 30.32 in - West 9.2 mph - N/A   Mostly Cloudy
11:56 PM 43.0 °F 37.7 °F 28.9 °F 58% 30.31 in - West 9.2 mph - N/A   Clear